Home > Weather > Gaggenau > Past weeks

Flag for Germany Weather for the Past 2 Weeks in Gaggenau, Baden-Württemberg, Germany

Now
55 °F

Sunny.


Feels Like: 55 °F
Forecast: 41 / 56 °F
Wind: 2 mph from Northwest

Location: Karlsruhe - Baden Wurttemberg

Current Time: May 2, 2016 at 9:37:36 PM

Latest Report: May 2, 2016 at 8:50 PM


Visibility: 10 mi

Pressure: 30.09 "Hg

Humidity: 67%

Dew Point: 45 °F

Location of GaggenauLocation

Historic Weather in Gaggenau — Graph

°F

Gaggenau Temperature Yesterday

Maximum temperature yesterday: 57 °F (at 4:50 PM)
Minimum temperature yesterday: 45 °F (at 5:20 AM)
Average temperature yesterday: 50 °F

High & Low Weather Summary for the Past Weeks

 TemperatureHumidityPressure
High70 °F (Apr 21, 3:50 PM)100% (Apr 17, 8:20 PM)30.39 "Hg (Apr 17, 8:20 PM)
Low30 °F (Apr 29, 5:20 AM)33% (Apr 21, 4:20 PM)29.59 "Hg (Apr 26, 5:50 AM)
Average48 °F73%30.03 "Hg
* Reported Apr 17 8:20 PM — May 2 8:20 PM, Gaggenau, Weather by CustomWeather, © 2016

Note: Actual official high and low records may vary slightly from our data, if they occured in-between our weather recording intervals... More about our weather records

Advertising

Gaggenau Weather History for the Previous 24 Hours

Scroll right to see more
 ConditionsComfort  
Time TempWeatherWind HumidityBarometerVisibility
8:20 PM
Mon, May 2
63 °FSunny.2 mph45%30.09 "Hg10 mi
7:50 PM64 °FSunny.3 mph46%30.09 "Hg10 mi
7:20 PM64 °FSunny.5 mph43%30.09 "Hg10 mi
6:50 PM66 °FSunny.5 mph43%30.09 "Hg10 mi
6:20 PM66 °FSunny.7 mph40%30.09 "Hg10 mi
5:50 PM66 °FSunny.7 mph37%30.12 "Hg10 mi
5:20 PM66 °FSunny.6 mph46%30.12 "Hg10 mi
4:50 PM66 °FSunny.7 mph43%30.12 "Hg10 mi
4:20 PM66 °FSunny.6 mph40%30.12 "Hg10 mi
3:50 PM64 °FSunny.7 mph43%30.15 "Hg10 mi
3:20 PM64 °FSunny.8 mph46%30.15 "Hg10 mi
2:50 PM64 °FSunny.10 mph43%30.15 "Hg10 mi
2:20 PM64 °FSunny.13 mph40%30.15 "Hg10 mi
1:50 PM64 °FPassing clouds.10 mph43%30.18 "HgN/A
1:20 PM63 °FPassing clouds.12 mph49%30.18 "HgN/A
12:50 PM61 °FPassing clouds.10 mph55%30.18 "HgN/A
12:20 PM61 °FPassing clouds.12 mph59%30.21 "HgN/A
11:50 AM59 °FPassing clouds.12 mph63%30.21 "HgN/A
11:20 AM57 °FSunny.13 mph63%30.21 "Hg10 mi
10:50 AM57 °FSunny.12 mph63%30.21 "Hg10 mi
10:20 AM55 °FSunny.13 mph67%30.21 "Hg10 mi
9:50 AM54 °FSunny.12 mph77%30.21 "Hg10 mi
8:50 AM50 °FSunny.13 mph88%30.21 "Hg10 mi
8:20 AM48 °FSunny.10 mph87%30.21 "Hg10 mi
6:50 AM39 °FClear.7 mph100%30.21 "Hg10 mi
6:20 AM39 °FClear.6 mph100%30.21 "Hg10 mi
5:50 AM41 °FFog.5 mph100%30.21 "HgN/A
5:20 AM39 °FFog.3 mph100%30.21 "HgN/A
4:50 AM39 °FClear.2 mph100%30.21 "Hg10 mi
2:20 AM41 °FFog.1 mph100%30.21 "Hg1 mi
1:20 AM45 °FClear.1 mph100%30.21 "Hg10 mi
12:50 AM46 °FClear.2 mph100%30.21 "Hg10 mi
11:50 PM
Sun, May 1
46 °FClear.No wind100%30.21 "Hg10 mi
10:50 PM48 °FClear.2 mph100%30.18 "Hg10 mi
10:20 PM46 °FFog.1 mph100%30.18 "Hg5 mi
9:50 PM48 °FFog.No wind100%30.18 "Hg5 mi
9:20 PM50 °FFog.2 mph94%30.18 "HgN/A
Weather by CustomWeather, © 2016

See weather overviewHow to use our weather pages